Flight Track Log - Related Links

Times and Time Zones

All times are in EDT time to prevent confusion due to time zone crossing. See the N1910A flight status page for this flight to view local times or setup timezone preferences in your user account.

Time Position Orientation Groundspeed Altitude Reporting Facility
EDT Latitude Longitude Course Direction KTS MPH feet Rate Location/Type
Mon 12:52:11 PM 36.0932 -115.1601 204° Southwest 91 105 2,100  Level FlightAware ADS-B (EPLL / LCJ)
Mon 12:53:11 PM 36.0536 -115.1836 103° East 189 217 3,200 1,403 Climbing Los Angeles Center
Mon 12:53:28 PM 36.0355 -115.1933 203° Southwest 214 246 3,900 2,500 Climbing FlightAware ADS-B (EPLL / LCJ)
Mon 12:53:47 PM 36.0194 -115.2056 207° Southwest 213 245 4,700 2,100 Climbing Los Angeles Center
Mon 12:54:48 PM 35.9803 -115.2742 235° Southwest 263 303 6,700 1,765 Climbing Los Angeles Center
Mon 12:55:12 PM 35.9550 -115.2911 208° Southwest 272 313 7,200 1,615 Climbing Los Angeles Center
Mon 12:55:14 PM 35.9486 -115.2908 182° South 259 298 7,400 2,571 Climbing FlightAware ADS-B (EPLL / LCJ)
Mon 12:55:33 PM 35.9248 -115.2850 158° South 260 299 8,100 1,900 Climbing FlightAware ADS-B (EPLL / LCJ)
Mon 12:56:14 PM 35.8803 -115.2628 163° South 283 326 9,300 2,039 Climbing Los Angeles Center
Mon 12:57:16 PM 35.8667 -115.1572 99° East 304 350 11,600 2,274 Climbing Los Angeles Center
Mon 12:58:00 PM 35.8221 -115.0964 103° East  Level FlightAware Approximate
Mon 12:58:18 PM 35.8731 -115.0528 86° East 305 351 14,000  Level Los Angeles Center
Mon 12:59:20 PM 35.8783 -114.9344 87° East 320 368 16,300 2,081 Climbing Los Angeles Center
Mon 01:00:22 PM 35.8831 -114.8358 87° East 323 372 18,300 2,304 Climbing Los Angeles Center
Mon 01:01:25 PM 35.8900 -114.7053 86° East 323 372 21,100 2,256 Climbing Los Angeles Center
Mon 01:02:27 PM 35.8944 -114.5969 87° East 320 368 23,000 1,742 Climbing Los Angeles Center
Mon 01:03:29 PM 35.8992 -114.4833 87° East 326 375 24,700 1,645 Climbing Los Angeles Center
Mon 01:04:31 PM 35.9042 -114.3675 87° East 333 383 26,400 1,645 Climbing Los Angeles Center
Mon 01:05:33 PM 35.9097 -114.2497 87° East 340 391 28,100 1,790 Climbing Los Angeles Center
Mon 01:06:35 PM 35.9169 -114.1097 86° East 341 392 30,100 1,742 Climbing Los Angeles Center
Mon 01:07:37 PM 35.9228 -113.9958 86° East 340 391 31,700 1,258 Climbing Los Angeles Center
Mon 01:08:39 PM 35.9272 -113.8822 87° East 337 388 32,700 864 Climbing Los Angeles Center
Mon 01:09:42 PM 35.9314 -113.7642 87° East 339 390 33,500 768 Climbing Los Angeles Center
Mon 01:10:44 PM 35.9358 -113.6411 87° East 354 407 34,300 823 Climbing Los Angeles Center
Mon 01:11:46 PM 35.9422 -113.5156 86° East 362 417 35,200 1,016 Climbing Los Angeles Center
Mon 01:12:48 PM 35.9489 -113.3675 87° East 366 421 36,400 919 Climbing Los Angeles Center
Mon 01:13:50 PM 35.9539 -113.2425 87° East 366 421 37,100 629 Climbing Los Angeles Center
Mon 01:14:52 PM 35.9589 -113.1172 87° East 366 421 37,700 581 Climbing Los Angeles Center
Mon 01:15:54 PM 35.9606 -112.9942 89° East 365 420 38,300 581 Climbing Los Angeles Center
Mon 01:16:56 PM 35.9656 -112.8678 87° East 366 421 38,900 336 Climbing Los Angeles Center
Mon 01:17:59 PM 35.9717 -112.7172 87° East 367 422 39,000 48 Climbing Los Angeles Center
Mon 01:19:01 PM 35.9747 -112.5847 88° East 381 438 39,000  Level Los Angeles Center
Mon 01:20:03 PM 35.9797 -112.4472 87° East 396 456 39,000  Level Los Angeles Center
Mon 01:21:05 PM 35.9847 -112.3061 87° East 408 470 39,000  Level Los Angeles Center
Mon 01:22:07 PM 35.9886 -112.1547 88° East 420 483 39,000  Level Los Angeles Center
Mon 01:23:09 PM 35.9928 -112.0167 88° East 411 473 39,000  Level Los Angeles Center
Mon 01:24:11 PM 35.9972 -111.8575 88° East 409 471 39,000  Level Los Angeles Center
Mon 01:25:13 PM 36.0017 -111.7181 88° East 408 470 39,000  Level Los Angeles Center
Mon 01:26:08 PM 36.0039 -111.6092 89° East 409 471 39,000  Level Denver Center
Mon 01:27:10 PM 36.0072 -111.4419 89° East 408 470 39,000  Level Denver Center
Mon 01:28:12 PM 36.0103 -111.3047 88° East 407 468 39,000  Level Denver Center
Mon 01:29:14 PM 36.0128 -111.1661 89° East 406 467 39,000  Level Denver Center
Mon 01:30:16 PM 36.0167 -111.0283 88° East 406 467 39,000  Level Denver Center
Mon 01:31:18 PM 36.0183 -110.8892 89° East 406 467 39,000  Level Denver Center
Mon 01:32:20 PM 36.0222 -110.7231 88° East 406 467 39,000  Level Denver Center
Mon 01:33:23 PM 36.0250 -110.5850 89° East 406 467 39,000  Level Denver Center
Mon 01:34:25 PM 36.0267 -110.4458 89° East 406 467 39,000  Level Denver Center
Mon 01:35:27 PM 36.0283 -110.3081 89° East 406 467 39,000  Level Denver Center
Mon 01:36:29 PM 36.0297 -110.1686 89° East 406 467 39,000  Level Denver Center
Mon 01:37:31 PM 36.0319 -110.0208 89° East 406 467 39,000  Level Denver Center
Mon 01:38:34 PM 36.0342 -109.8642 89° East 406 467 39,000  Level Albuquerque Center
Mon 01:39:35 PM 36.0347 -109.7314 90° East 406 467 39,000  Level Denver Center
Mon 01:40:37 PM 36.0361 -109.5744 89° East 406 467 39,000  Level Denver Center
Mon 01:41:39 PM 36.0369 -109.4403 90° East 407 468 39,000  Level Denver Center
Mon 01:42:42 PM 36.0381 -109.2831 89° East 406 467 39,000  Level Albuquerque Center
Mon 01:43:44 PM 36.0386 -109.1572 90° East 408 470 39,000  Level Albuquerque Center
Mon 01:44:46 PM 36.0400 -108.9911 89° East 412 474 39,000  Level Albuquerque Center
Mon 01:45:48 PM 36.0411 -108.8492 89° East 412 474 39,000  Level Albuquerque Center
Mon 01:46:50 PM 36.0397 -108.7081 91° East 413 475 39,000  Level Albuquerque Center
Mon 01:47:52 PM 36.0400 -108.5675 90° East 412 474 39,000  Level Albuquerque Center
Mon 01:48:55 PM 36.0397 -108.4139 90° East 412 474 39,000  Level Albuquerque Center
Mon 01:49:57 PM 36.0392 -108.2783 90° East 411 473 39,000  Level Albuquerque Center
Mon 01:50:59 PM 36.0386 -108.1219 90° East 411 473 39,000  Level Albuquerque Center
Mon 01:52:01 PM 36.0386 -107.9878 90° East 411 473 39,000  Level Albuquerque Center
Mon 01:53:03 PM 36.0375 -107.8322 90° East 410 472 39,000  Level Albuquerque Center
Mon 01:54:05 PM 36.0358 -107.6986 91° East 409 471 39,000  Level Albuquerque Center
Mon 01:55:07 PM 36.0358 -107.5436 90° East 409 471 39,000  Level Albuquerque Center
Mon 01:56:09 PM 36.0336 -107.4114 91° East 408 470 39,000  Level Albuquerque Center
Mon 01:57:11 PM 36.0325 -107.2558 90° East 407 468 39,000  Level Albuquerque Center
Mon 01:58:13 PM 36.0311 -107.1236 91° East 407 468 39,000  Level Albuquerque Center
Mon 01:59:15 PM 36.0286 -106.9689 91° East 406 467 39,000  Level Albuquerque Center
Mon 02:00:17 PM 36.0272 -106.8364 91° East 405 466 39,000  Level Albuquerque Center
Mon 02:01:19 PM 36.0239 -106.6831 91° East 404 465 39,000  Level Albuquerque Center
Mon 02:02:21 PM 36.0231 -106.5517 90° East 404 465 39,000  Level Albuquerque Center
Mon 02:03:23 PM 36.0208 -106.4192 91° East 404 465 39,000  Level Albuquerque Center
Mon 02:04:25 PM 36.0172 -106.2806 92° East 404 465 39,000  Level Albuquerque Center
Mon 02:05:27 PM 36.0150 -106.1147 91° East 403 464 39,000  Level Albuquerque Center
Mon 02:06:29 PM 36.0117 -105.9758 92° East 403 464 39,000  Level Albuquerque Center
Mon 02:07:32 PM 36.0078 -105.8378 92° East 403 464 39,000  Level Albuquerque Center
Mon 02:08:34 PM 36.0050 -105.6997 91° East 402 463 39,000  Level Albuquerque Center
Mon 02:09:36 PM 36.0006 -105.5614 92° East 402 463 39,000  Level Albuquerque Center
Mon 02:10:38 PM 35.9961 -105.4106 92° East 398 458 39,000  Level Albuquerque Center
Mon 02:11:40 PM 35.9931 -105.2681 91° East 402 463 39,000  Level Albuquerque Center
Mon 02:12:42 PM 35.9900 -105.1281 92° East 403 464 39,000  Level Albuquerque Center
Mon 02:13:44 PM 35.9850 -104.9869 92° East 404 465 39,000  Level Albuquerque Center
Mon 02:14:46 PM 35.9803 -104.8481 92° East 404 465 39,000  Level Albuquerque Center
Mon 02:15:48 PM 35.9750 -104.7092 93° East 404 465 39,000  Level Albuquerque Center
Mon 02:16:50 PM 35.9708 -104.5681 92° East 404 465 39,000  Level Albuquerque Center
Mon 02:17:52 PM 35.9647 -104.4031 93° East 404 465 39,000  Level Albuquerque Center
Mon 02:18:54 PM 35.9603 -104.2633 92° East 404 465 39,000  Level Albuquerque Center
Mon 02:19:56 PM 35.9553 -104.1233 92° East 404 465 39,000  Level Albuquerque Center
Mon 02:20:58 PM 35.9494 -103.9819 93° East 404 465 39,000  Level Albuquerque Center
Mon 02:22:00 PM 35.9447 -103.8392 92° East 406 467 39,000  Level Albuquerque Center
Mon 02:23:02 PM 35.9392 -103.6992 93° East 406 467 39,000  Level Albuquerque Center
Mon 02:24:04 PM 35.9325 -103.5583 93° East 406 467 39,000  Level Albuquerque Center
Mon 02:25:06 PM 35.9258 -103.4164 93° East 407 468 39,000  Level Albuquerque Center
Mon 02:26:07 PM 35.9200 -103.2772 93° East 407 468 39,000  Level Albuquerque Center
Mon 02:27:09 PM 35.9125 -103.1144 93° East 404 465 39,000  Level Albuquerque Center
Mon 02:28:11 PM 35.9064 -102.9767 93° East 404 465 39,000  Level Albuquerque Center
Mon 02:29:13 PM 35.9000 -102.8492 94° East 402 463 39,000  Level Albuquerque Center
Mon 02:30:15 PM 35.8939 -102.7131 93° East 402 463 39,000  Level Albuquerque Center
Mon 02:31:17 PM 35.8872 -102.5778 93° East 400 460 39,000  Level Albuquerque Center
Mon 02:32:20 PM 35.8775 -102.4144 94° East 399 459 39,000  Level Albuquerque Center
Mon 02:33:21 PM 35.8722 -102.2792 93° East 398 458 39,000  Level Albuquerque Center
Mon 02:34:23 PM 35.8644 -102.1439 94° East 397 457 39,000  Level Albuquerque Center
Mon 02:35:25 PM 35.8567 -102.0078 94° East 397 457 39,000  Level Albuquerque Center
Mon 02:36:27 PM 35.8500 -101.8703 93° East 398 458 39,000  Level Albuquerque Center
Mon 02:37:29 PM 35.8417 -101.7336 94° East 398 458 39,000  Level Albuquerque Center
Mon 02:39:22 PM 35.8247 -101.4608 94° East 397 457 39,000  Level Fort Worth Center
Mon 02:40:24 PM 35.8167 -101.3247 94° East 397 457 39,000  Level Fort Worth Center
Mon 02:41:26 PM 35.8078 -101.1875 95° East 397 457 39,000  Level Fort Worth Center
Mon 02:42:28 PM 35.7989 -101.0517 95° East 397 457 39,000  Level Fort Worth Center
Mon 02:43:31 PM 35.7892 -100.9167 95° East 397 457 39,000  Level Fort Worth Center
Mon 02:44:33 PM 35.7811 -100.7786 94° East 397 457 39,000  Level Fort Worth Center
Mon 02:45:35 PM 35.7739 -100.6450 94° East 392 451 39,000  Level Fort Worth Center
Mon 02:46:37 PM 35.7631 -100.4839 95° East 391 450 39,000  Level Fort Worth Center
Mon 02:47:39 PM 35.7539 -100.3483 95° East 394 453 39,000  Level Fort Worth Center
Mon 02:48:41 PM 35.7450 -100.2133 95° East 393 452 39,000  Level Fort Worth Center
Mon 02:49:43 PM 35.7350 -100.0783 95° East 394 453 39,000 -242 Level Fort Worth Center
Mon 02:50:45 PM 35.7250 -99.9436 95° East 394 453 38,500 -726 Descending Fort Worth Center
Mon 02:51:47 PM 35.7150 -99.8019 95° East 411 473 37,500 -1,056 Descending Fort Worth Center
Mon 02:52:50 PM 35.7006 -99.6267 96° East 425 489 36,300 -1,056 Descending Fort Worth Center
Mon 02:53:52 PM 35.6894 -99.4811 95° East 427 491 35,300 -629 Descending Fort Worth Center
Mon 02:54:54 PM 35.6789 -99.3417 95° East 409 471 35,000 -387 Descending Fort Worth Center
Mon 02:55:56 PM 35.6683 -99.2028 95° East 406 467 34,500 -774 Descending Fort Worth Center
Mon 02:56:58 PM 35.6564 -99.0589 96° East 422 486 33,400 -1,597 Descending Fort Worth Center
Mon 02:58:00 PM 35.6419 -98.8867 96° East 426 490 31,200 -2,419 Descending Fort Worth Center
Mon 02:59:02 PM 35.6322 -98.7464 95° East 416 479 28,400 -2,710 Descending Fort Worth Center
Mon 03:00:04 PM 35.6203 -98.6086 96° East 407 468 25,600 -2,640 Descending Fort Worth Center
Mon 03:01:07 PM 35.6100 -98.4783 96° East 393 452 22,900 -2,944 Descending Fort Worth Center
Mon 03:01:52 PM 35.5978 -98.3597 97° East 376 433 20,300 -2,710 Descending Fort Worth Center
Mon 03:02:09 PM 35.5997 -98.3514 74° East 378 435 20,100 -2,754 Descending Fort Worth Center
Mon 03:02:53 PM 35.5911 -98.2397 95° East 357 411 17,500 -3,290 Descending Fort Worth Center
Mon 03:03:11 PM 35.5947 -98.2061 82° East 358 412 16,700 -2,754 Descending Fort Worth Center
Mon 03:03:54 PM 35.5975 -98.1253 88° East 325 374 14,700 -2,613 Descending Fort Worth Center
Mon 03:04:13 PM 35.6031 -98.0944 77° East 333 383 14,000 -2,200 Descending Fort Worth Center
Mon 03:04:54 PM 35.6086 -98.0178 85° East 311 358 12,500 -2,129 Descending Fort Worth Center
Mon 03:05:15 PM 35.6128 -97.9908 79° East 310 357 11,800 -2,754 Descending Fort Worth Center
Mon 03:05:55 PM 35.6164 -97.9183 86° East 294 338 9,700 -3,097 Descending Fort Worth Center
Mon 03:06:17 PM 35.6206 -97.8778 83° East 306 352 8,600 -2,557 Descending Fort Worth Center
Mon 03:06:56 PM 35.6261 -97.8161 84° East 299 344 7,100 -2,323 Descending Fort Worth Center
Mon 03:07:19 PM 35.6303 -97.7806 82° East 286 329 6,200 -1,964 Descending Fort Worth Center
Mon 03:07:51 PM 35.6278 -97.7386 94° East 233 268 5,300 -1,452 Descending Fort Worth Center
Mon 03:08:21 PM 35.6272 -97.6978 91° East 219 252 4,700 -1,701 Descending Fort Worth Center
Mon 03:08:58 PM 35.6172 -97.6656 111° Southeast 158 182 3,400 -1,905 Descending Fort Worth Center
Mon 03:09:24 PM 35.6050 -97.6492 133° Southeast 173 199 2,700 -1,400 Descending Fort Worth Center
Mon 03:09:58 PM 35.5814 -97.6458 173° South 144 166 2,000 -968 Descending Fort Worth Center
Mon 03:10:26 PM 35.5636 -97.6456 179° South 139 160 1,700 -643 Descending Fort Worth Center
Mon 03:12:00 PM 35.5333 -97.6333 180° South  Level FlightAware Approximate
Mon 03:19:00 PM 35.5342 -97.6471 180° South  Level Estimated

Login

Don't have an account? Register now (free) for customized features, flight alerts, and more!